SCP
0 0 0 0 0 0 0 0 0 0 0 0 0 0 0 0 0 0 0 0 0 0 0 0 0 0 0 0 0 0 0 0 0 0 0 0 0 0 -0 0 0 0 0
0 0 0 0 0 0 0 0 0 0 0 0 0 0 0 0 0 0 0 0 0 0 0 0 0 0 0 0 0 0 0 0 0 0 0 0 0 0 0 0 0 0 0
0 0 0 0 0 0 0 0 0 0 0 0 0 0 0 0 0 0 0 0 0 0 0 0 0 0 0 0 0 0 0 0 0 0 0 0 0 0 0 0 0 0 0
0 0 0 0 0 0 0 0 0 0 0 0 0 0 0 0 0 0 0 0 0 0 0 0 0 0 0 0 0 0 0 0 0 0 0 0 0 0 0 0 0 0 0
0 0 0 0 0 0 0 0 0 0 0 0 0 0 0 0 0 0 0 0 0 0 0 0 0 0 0 0 0 0 0 0 0 0 0 0 0 0 0 0 0 0 0
0 0 0 0 0 0 0 0 0 0 0 0 0 0 0 0 0 0 0 0 0 0 0 0 0 0 0 0 0 0 0 0 0 0 0 0 0 0 0 0 0 0 0
0 0 0 0 0 0 0 0 0 0 0 0 0 0 0 0 0 0 0 0 0 0 0 0 0 0 0 0 0 0 0 0 0 0 0 0 0 0 0 0 0 0 0
0 0 0 0 0 0 0 0 0 0 0 0 0 0 0 0 0 0 0 0 0 0 0 0 0 0 0 0 0 0 0 0 0 0 0 0 0 0 0 0 0 0 0
0 0 0 0 0 0 0 0 0 0 0 0 0 0 0 0 0 0 0 0 0 0 0 0 0 0 0 0 0 0 0 0 0 0 0 0 0 0 0 0 0 0 0
0 0 0 0 0 0 0 0 0 0 0 0 0 0 0 0 0 0 0 0 0 0 0 0 0 0 0 0 0 0 0 0 0 0 0 0 0 0 0 0 0 0 0
0 0 0 0 0 0 0 0 0 0 0 0 0 0 0 0 0 0 0 0 0 0 0 0 0 0 0 0 0 0 0 0 0 0 0 0 0 0 0 0 0 0 0
0 0 0 0 0 0 0 0 0 0 0 0 0 0 0 0 0 0 0 0 0 0 0 0 0 0 0 0 0 0 0 0 0 0 0 0 0 0 0 0 0 0 0
0 0 0 0 0 0 0 0 0 0 0 0 0 0 0 0 0 0 0 0 0 0 0 0 0 0 0 0 0 0 0 0 0 0 0 0 0 0 0 0 0 0 0
0 0 0 0 0 0 0 0 0 0 0 0 0 0 0 0 0 0 0 0 0 0 0 0 0 0 0 0 0 0 0 0 0 0 0 0 0 0 0 0 0 0 0
0 0 0 0 0 0 0 0 0 0 0 0 0 0 0 0 0 0 0 0 0 0 0 0 0 0 0 0 0 0 0 0 0 0 0 0 0 0 0 0 0 0 0
0 0 0 0 0 0 0 0 0 0 0 0 0 0 0 0 0 0 0 0 0 0 0 0 0 0 0 0 0 0 0 0 0 0 0 0 0 0 0 0 0 0 0
0 0 0 0 0 0 0 0 0 0 0 0 0 0 0 0 0 0 0 0 0 0 0 0 0 0 0 0 0 0 0 0 0 0 0 0 0 0 0 0 0 0 0
0 0 0 0 0 0 0 0 0 0 0 0 0 0 0 0 0 0 0 0 0 0 0 0 0 0 0 0 0 0 0 0 0 0 0 0 0 0 0 0 0 0 0
0 0 0 0 0 0 0 0 0 0 0 0 0 0 0 0 0 0 0 0 0 0 0 0 0 0 0 0 0 0 0 0 0 0 0 0 0 0 0 0 0 0 0
0 0 0 0 0 0 0 0 0 0 0 0 0 0 0 0 0 0 0 0 0 0 0 0 0 0 0 0 0 0 0 0 0 0 0 0 0 0 0 0 0 0 0
0 0 0 0 0 0 0 0 0 0 0 0 0 0 0 0 0 0 0 0 0 0 0 0 0 0 0 0 0 0 0 0 0 0 0 0 0 0 0 0 0 0 0
0 0 0 0 0 0 0 0 0 0 0 -0 -0 -0 0 0 0 0 0 0 0 0 0 0 0 0 0 0 0 0 0 0 0 0 0 0 0 0 0 0 0 0 0
0 0 0 0 0 0 0 0 0 0 0 0 -0 -0 -0 0 0 0 0 0 0 0 0 0 0 0 0 0 0 0 0 0 0 0 0 0 0 0 0 0 0 0 0
0 0 0 0 0 0 0 0 0 0 0 0 0 0 0 0 0 0 0 0 0 0 0 0 0 0 0 0 0 0 0 0 0 0 0 0 0 0 0 0 0 0 0
0 0 0 0 0 0 0 0 0 0 0 0 0 0 0 0 0 0 0 0 0 0 0 0 0 0 0 0 0 0 0 0 0 0 0 0 0 0 0 0 0 0 0
0 0 0 0 0 0 0 0 0 0 0 0 0 0 0 0 0 0 0 0 0 0 0 0 0 0 0 0 0 0 0 0 0 0 0 0 0 0 0 0 0 0 0
Wind_Speed
2 2 2 2 1 1 2 3 2 2 2 2 2 3 3 3 3 3 3 3 3 2 2 2 2 2 2 2 2 2 2 2 2 2 1 1 1 1 1 1 1 1 2
3 3 3 2 1 1 1 2 2 2 2 2 2 2 3 3 3 4 4 3 4 4 3 3 2 2 2 2 2 2 2 2 3 2 1 1 1 2 1 1 1 1 2
3 3 2 2 2 2 2 1 1 2 2 1 2 2 3 3 3 3 4 4 4 4 4 4 3 3 3 2 3 3 2 2 2 2 1 1 1 1 1 1 2 2 2
3 3 3 3 3 3 2 2 2 2 2 2 2 3 3 3 3 3 3 3 3 3 3 4 4 4 4 4 3 3 3 2 2 2 1 1 1 1 0 1 2 2 2
3 3 4 3 3 2 2 2 2 2 2 2 2 2 2 2 3 3 4 4 3 3 3 3 4 4 5 4 3 4 4 3 2 2 2 1 1 1 2 1 2 2 3
3 3 3 2 2 2 2 2 1 1 1 1 2 2 2 3 4 5 4 3 3 4 3 3 3 4 5 6 6 5 6 5 4 3 3 3 4 3 2 2 1 1 3
3 3 2 2 3 3 2 2 2 2 2 2 2 2 3 4 4 5 6 4 3 4 4 3 3 3 4 3 4 4 5 6 7 5 5 5 5 5 4 3 3 3 3
2 2 2 2 3 2 2 2 3 2 2 2 2 2 3 4 5 5 5 4 3 4 4 4 4 3 3 4 3 2 3 4 6 5 5 6 5 5 6 5 4 2 2
2 2 2 2 2 2 3 3 3 2 2 2 2 2 3 4 5 4 3 2 2 3 3 3 4 4 6 5 4 3 3 4 5 6 6 5 5 5 4 3 2 2 2
4 3 3 3 3 3 4 3 2 2 3 2 2 2 3 4 5 4 3 2 2 2 2 3 5 5 5 6 4 4 5 5 3 3 3 4 4 4 7 5 5 4 2
3 2 2 2 3 3 3 2 2 2 2 2 3 3 3 4 4 4 4 2 3 3 3 3 4 6 7 7 6 5 7 4 3 3 2 2 2 2 3 4 5 5 4
2 2 2 2 2 2 2 2 2 2 2 3 3 3 3 3 4 4 5 5 4 3 4 3 4 6 7 7 6 6 7 4 2 2 2 2 2 3 3 3 4 5 4
1 2 2 2 2 2 2 3 2 2 3 3 3 3 3 3 4 6 6 6 6 4 4 5 5 5 5 5 7 7 5 3 2 2 3 4 3 3 2 1 2 2 2
2 3 2 2 2 2 2 3 3 3 3 3 3 4 3 3 3 3 3 4 5 5 4 4 5 4 4 4 4 4 3 3 4 4 3 3 2 1 2 2 2 2 1
3 3 2 2 3 2 2 3 4 5 5 5 5 4 4 4 6 5 3 3 3 4 2 1 1 1 2 2 2 2 2 2 3 3 3 2 2 2 2 2 2 2 3
2 3 2 2 2 2 2 3 4 5 6 7 7 6 5 7 6 5 6 6 5 3 2 2 3 3 4 4 4 3 3 4 4 3 3 4 3 3 3 2 2 3 4
3 3 2 2 2 2 2 2 3 4 5 6 7 7 7 7 7 6 6 6 5 4 3 3 4 4 4 4 4 4 4 4 4 4 4 4 4 3 3 3 3 3 3
4 4 3 3 3 3 3 3 3 3 3 4 5 6 7 7 7 6 5 3 3 3 4 4 4 4 4 4 4 4 4 3 4 4 4 4 4 3 3 3 4 4 4
3 3 3 3 3 3 3 3 3 3 3 3 3 4 5 6 6 5 3 3 4 4 5 5 4 4 4 4 4 4 4 4 4 4 4 5 4 4 4 4 4 6 5
3 5 4 2 2 2 3 3 3 3 3 3 3 4 2 1 2 3 3 4 4 4 4 5 4 4 4 4 4 4 4 4 5 5 5 5 4 4 5 6 5 5 5
3 3 5 3 3 3 3 3 3 3 3 3 4 4 4 2 3 4 4 4 5 5 5 4 4 4 5 4 4 5 5 5 5 5 5 5 4 5 5 5 5 5 4
2 2 3 3 3 3 3 3 3 3 4 4 4 3 5 3 3 3 4 4 5 5 4 4 4 5 5 5 5 5 5 5 5 5 5 5 5 5 4 4 4 4 5
2 2 2 2 3 4 3 3 3 3 4 4 4 3 3 3 4 4 5 4 4 4 4 4 4 4 4 4 5 5 6 6 6 6 6 5 5 5 5 5 6 5 5
2 2 3 2 2 2 3 3 3 3 4 4 4 4 4 4 4 5 5 4 4 4 4 4 5 6 7 6 5 5 5 6 5 5 7 6 6 5 5 5 6 6 6
2 2 2 2 2 3 3 3 3 3 3 4 4 4 4 4 4 4 4 4 4 4 4 4 4 5 7 8 7 6 8 9 8 5 5 6 6 6 6 6 6 6 6
2 2 2 2 2 2 3 3 3 3 3 4 4 4 4 4 4 4 4 4 4 4 4 4 5 6 7 6 7 8 9 9 8 8 5 5 6 6 6 6 7 6 6
Wind_Direction
180 176 167 179 178 172 193 201 198 212 212 200 203 201 196 187 180 177 189 179 178 183 181 178 196 182 167 168 166 168 171 157 186 253 260 280 241 273 309 308 284 292 297
182 175 184 182 165 168 207 220 205 212 219 214 202 201 206 199 190 191 201 197 192 194 196 181 198 182 178 181 181 189 189 182 174 210 239 258 252 249 261 273 288 281 274
176 174 180 181 184 198 220 224 214 213 222 217 199 209 213 206 199 203 202 204 204 203 198 193 199 180 197 198 195 197 197 186 169 176 213 230 270 278 314 297 295 304 286
172 179 194 207 206 206 213 217 216 209 209 216 219 222 218 209 202 204 205 208 209 211 208 204 200 199 204 200 201 196 180 172 164 166 193 227 242 296 261 262 296 306 295
174 191 209 214 207 199 209 223 219 211 218 213 216 238 235 215 211 202 205 207 206 215 219 216 215 215 216 206 207 194 179 175 170 174 194 204 226 213 230 227 245 289 288
181 204 209 202 200 204 207 211 210 222 229 212 213 220 232 245 243 216 204 207 204 205 216 226 228 223 230 226 227 202 184 181 184 183 197 211 227 217 203 212 204 227 277
191 203 202 200 209 219 211 198 214 223 218 224 229 224 238 254 254 241 223 204 206 212 213 215 228 226 217 219 227 218 211 212 197 185 197 214 212 207 192 208 212 210 233
190 206 214 204 214 213 197 210 226 226 224 235 245 246 251 270 266 253 237 210 215 223 220 215 218 227 217 201 196 212 228 229 219 208 211 222 217 203 199 204 208 213 265
206 216 224 211 205 197 209 226 224 212 223 235 248 244 250 270 271 260 227 198 221 236 235 226 218 223 231 204 184 207 237 254 244 233 235 240 238 221 193 157 160 173 253
223 223 221 214 207 210 216 222 218 206 219 227 254 251 251 260 269 257 225 195 216 236 243 243 233 230 235 206 191 197 228 246 235 240 244 252 242 222 205 192 183 185 208
224 224 226 218 217 219 218 213 204 205 217 234 251 261 259 263 270 259 228 202 215 223 234 242 243 238 235 226 216 211 231 234 215 222 240 244 238 225 216 206 196 190 197
198 206 225 230 229 226 211 219 208 204 216 238 250 270 268 267 263 258 240 230 224 214 231 237 240 238 235 233 225 234 240 228 195 204 227 239 237 237 230 223 217 215 216
189 219 234 244 239 224 210 218 220 214 216 232 237 252 266 267 266 261 253 245 238 229 239 243 242 239 235 235 236 235 226 206 193 210 231 240 238 233 218 223 236 223 238
204 230 234 231 246 248 231 221 215 217 220 228 231 245 260 267 264 256 247 248 246 241 246 254 252 243 231 237 243 237 219 204 201 216 230 239 235 215 212 202 203 195 227
219 237 246 240 235 241 242 233 227 228 221 220 225 226 230 247 251 251 240 232 226 228 226 205 208 224 229 236 238 236 220 209 219 221 219 227 229 232 233 209 197 192 211
223 245 241 236 237 237 247 281 272 254 256 244 242 237 242 249 262 255 251 256 253 236 191 216 227 227 230 228 225 226 222 221 222 220 219 221 224 227 231 220 205 209 228
216 230 237 233 228 228 232 242 279 299 290 270 257 252 250 257 255 253 251 253 245 210 206 224 229 233 237 232 227 224 225 223 215 215 221 223 222 224 223 223 218 223 236
224 232 232 227 226 227 231 238 241 251 277 288 278 265 263 262 261 256 249 231 236 218 219 225 229 232 234 234 231 231 230 223 215 216 221 221 216 218 224 226 224 228 235
226 232 231 226 227 231 234 237 243 249 255 272 291 292 281 275 275 271 235 208 222 228 227 231 232 233 234 234 232 229 226 225 223 218 220 221 217 217 226 229 227 234 233
236 244 244 231 226 232 236 237 242 246 252 261 265 269 282 279 263 263 232 228 230 232 231 233 236 236 235 235 233 229 227 227 224 223 225 224 222 221 228 229 226 226 231
244 249 251 244 227 228 232 236 239 239 246 256 261 266 267 247 248 252 244 231 230 233 233 232 234 235 236 236 234 231 229 230 226 224 224 225 225 227 230 227 227 226 229
238 243 238 235 234 233 236 236 238 241 246 253 268 277 274 256 255 257 254 248 239 236 232 230 234 234 231 230 231 233 234 235 232 226 225 224 224 227 230 231 230 226 224
240 246 249 250 244 249 251 244 241 244 251 254 259 266 265 256 256 258 260 261 252 242 235 230 236 242 239 235 231 229 231 235 233 226 226 226 224 225 226 230 231 229 229
240 242 246 253 249 240 242 249 248 251 253 257 259 257 257 259 260 260 260 259 258 252 242 234 236 243 244 241 237 235 235 237 233 226 223 225 225 223 223 227 231 230 230
248 251 250 248 247 246 247 251 251 251 258 261 262 264 262 263 268 270 268 263 261 258 256 252 251 250 248 245 242 241 243 240 235 229 221 221 224 225 224 226 228 230 229
260 260 262 258 255 255 252 253 255 255 256 260 261 262 263 262 264 268 269 266 265 264 262 257 255 257 260 254 248 249 250 244 238 235 227 221 223 226 226 227 227 226 225